ARIANE 42P R/B, 22079

Orbit data source: Space-Track

ARIANE 42P R/B, 22079 is space debris in LEO originally from a launch on Mon, 10 Aug 1992 UTC launched from the French Guiana (FRGUI). Debris objects in space refer to the collection of defunct objects orbiting the Earth. Examples of debris include non-operational satellites, rocket bodies, and fragments generated from explosions, collisions, or faulty payload assembly.

Loading next visibility...
Identifier
22079, 1992-052D
Orbit
LEO
Country
Flag of FRFR
Related business
Manufacturer
Ae/LesM
Mission
Spacecraft
Bus & Motor
ARIANE H10, Unknown motor
Mass
1,875 kg wet, 1,820 kg dry
Launch date (UTC)
1992-08-10 (33 years ago)
Launch vehicle
Unknown
Launch site
French Guiana (FRGUI)
Object type
Payload
Rocket body
Debris
Shape & HBR
Cyl, 6.0 m
Radar Cross Section
27.363 m², Large (>1 m²)

Expand to show TLE details & history
Last TLE update: 10 hours ago

TLE from 10 hours ago
0 ARIANE 42P R/B
1 22079U 92052D   25354.65812816 -.00000081  00000-0 -93703-4 0  9991
2 22079  66.0662 314.5134 0065781  19.1197 153.8908 12.77958069556570
Epoch: 2025-12-20T15:47Z
TLE epoch observation values (Epoch: 2025-12-20T15:47:42.273Z)
Latitude
6.02672°
Longitude
165.43295°
Altitude
1,396.737 km
Speed
7.141 km/s
True Right ascension
08h 47m 21s
True Declination
5° 59' 38"
Sunlit
Object was in full shadow at epoch
Visualization orbit readout
Latitude
Unknown
Longitude
Unknown
Altitude
Unknown
Speed
Unknown
Apparent Right ascension
Unknown
Apparent Declination
Unknown
Sunlit
N/A
Visualization observer readout
Local Sidereal Time
00:41:02
Azimuth
Unknown
Elevation
Unknown
Doppler factor
Unknown
Orbital elements
Apogee altitude
1,399.078 km
Perigee altitude
1,297.428 km
Semi-major axis
7,726.39 km
Eccentricity
0.00658
Inclination
66.0662°
RAAN
314.5134°
Arg. of periapsis
19.1197°
True anomaly
154.2201°
Mean anomaly
153.8908°
Eccentric anomaly
154.05569°
Mean motion
3.19579 °/min
Orbital period
112.65 mins
BSTAR
-0.000093703
Loading maneuver chart data...
Computing Atmospheric mass density...
Loading historical data...
Loading historical data...
Loading historical data...
Loading historical data...
Loading historical data...
Loading historical data...
Loading historical data...

Documentation

Showing up to 5 results
|